Regional Weather Roundup
Issued by NWS Albany, NY

Home | Current Version | Previous Version | Text Only | Print | Product List | Glossary On
Versions: 1 2 3 4 5 6 7 8 9 10 11 12 13 14 15 16 17 18 19 20 21 22 23 24 25 26 27 28 29 30 31 32 33 34 35 36 37 38 39 40 41 42 43 44 45 46 47 48 49 50
000
ASUS41 KALY 282110
RWRALY

NEW YORK STATE HOURLY WEATHER ROUNDUP
NATIONAL WEATHER SERVICE ALBANY NY
500 PM EDT SAT MAR 28 2015

NOTE: "FAIR" INDICATES FEW OR NO CLOUDS BELOW 12,000 FEET WITH NO
SIGNIFICANT WEATHER AND/OR NO OBSTRUCTIONS TO VISIBILITY.

NYZ032-033-038>043-046>054-057>066-NYZ062>081-282200-
EAST


CITY           SKY/WX    TMP DP  RH WIND       PRES   REMARKS
ALBANY         FLURRIES  30  20  66 NW13      29.92R WCI  20
GLENS FALLS    CLOUDY    31  15  52 NE14      29.92R WCI  21
POUGHKEEPSIE   CLOUDY    33  20  58 N14       29.89R WCI  23
NEWBURGH       CLOUDY    34  23  64 N9        29.88R WCI  26
MONTGOMERY     CLOUDY    32  18  56 NW12      29.88R WCI  23
WHITE PLAINS   LGT SNOW  32  23  69 N13       29.85R WCI  22
ISLIP          LGT SNOW  32  27  81 NW16G24   29.84R WCI  21
NEW YORK CITY  PTSUNNY   38  22  52 N13       29.87R WCI  30
CENTRAL PARK   CLOUDY    39  22  50 CALM      29.89R
$$

NYZ005>009-017-018-044>046-055-056-282200-
CENTRAL


CITY           SKY/WX    TMP DP  RH WIND       PRES   REMARKS
FULTON         SUNNY     24   4  42 NW14      30.08S WCI  12
SYRACUSE       MOSUNNY   25   5  42 NW16      30.07S WCI  12
ROME           SUNNY     26   9  48 NW13G20   30.03R WCI  15
ELMIRA         MOSUNNY   26   5  40 N9G22     30.04R WCI  17
BINGHAMTON     CLOUDY    20   6  55 N14G30    29.94R WCI   7
MONTICELLO     CLOUDY    27  12  54 NW18G24   29.87R WCI  13
$$

NYZ026>034-041>043-282200-
NORTH


CITY           SKY/WX    TMP DP  RH WIND       PRES   REMARKS
WATERTOWN      SUNNY     28   4  35 NW10      30.07S WCI  19
FORT DRUM      NOT AVBL
MASSENA        SUNNY     27   0  31 W13G18    30.05S WCI  16
SARANAC LAKE   PTSUNNY   21   7  54 VRB6      29.90R WCI  13
PLATTSBURGH    SUNNY     28   3  34 N17       29.99S WCI  16
$$

NYZ001>004-010>016-019>021-282200-
WEST


CITY           SKY/WX    TMP DP  RH WIND       PRES   REMARKS
NIAGARA FALLS  MOSUNNY   27   6  41 NW14      30.15S WCI  16
BUFFALO        MOSUNNY   27   6  41 N15G21    30.14R WCI  15
DUNKIRK        SUNNY     24   8  50 W12       30.18S WCI  13
JAMESTOWN      SUNNY     21   1  42 NW16G23   30.09R WCI   7
WELLSVILLE     MOSUNNY   19   2  47 NW16G28   30.00R WCI   4
ROCHESTER      MOSUNNY   27   5  39 NW18G24   30.12S WCI  14
PENN YAN       MOSUNNY   24   7  48 NW13G24   30.07R WCI  12
$$

             KEY
       WCI = WIND CHILL INDEX
       VSB = VISIBILITY
       HX  = HEAT INDEX
$$


USA.gov is the U.S. government's official web portal to all federal, state and local government web resources and services.